Home > Weather > Verona > Past weeks

Flag for Italy Weather for the Past 2 Weeks in Verona, Italy

Now
48 °F

Clear.


Feels Like: 46 °F
Forecast: 49 / 74 °F
Wind: 5 mph from Northwest

Location: Verona / Villafranca

Current Time: May 6, 2016 at 6:36:01 AM

Latest Report: May 6, 2016 at 5:50 AM


Visibility: 10 mi

Pressure: 30.12 "Hg

Humidity: 82%

Dew Point: 43 °F

Location of VeronaLocation

Historic Weather in Verona — Graph

°F

Verona Temperature Yesterday

Maximum temperature yesterday: 70 °F (at 3:20 PM)
Minimum temperature yesterday: 54 °F (at 4:20 AM)
Average temperature yesterday: 62 °F

High & Low Weather Summary for the Past Weeks

 TemperatureHumidityPressure
High73 °F (Apr 22, 3:50 PM)100% (Apr 24, 3:20 AM)30.39 "Hg (Apr 24, 3:20 AM)
Low37 °F (Apr 26, 5:50 AM)19% (May 4, 12:20 PM)29.53 "Hg (Apr 24, 4:20 AM)
Average57 °F63%29.91 "Hg
* Reported Apr 21 5:20 AM — May 6 5:20 AM, Verona, Weather by CustomWeather, © 2016

Note: Actual official high and low records may vary slightly from our data, if they occured in-between our weather recording intervals... More about our weather records

Advertising

Verona Weather History for the Previous 24 Hours

Scroll right to see more
 ConditionsComfort  
Time TempWeatherWind HumidityBarometerVisibility
5:20 AM
Fri, May 6
46 °FClear.2 mph87%30.12 "Hg10 mi
4:50 AM50 °FPassing clouds.3 mph71%30.12 "HgN/A
4:20 AM50 °FClear.3 mph76%30.12 "Hg10 mi
3:50 AM50 °FClear.5 mph76%30.12 "Hg10 mi
3:20 AM50 °FClear.5 mph76%30.12 "Hg10 mi
2:50 AM52 °FClear.2 mph77%30.12 "Hg10 mi
2:20 AM48 °FClear.5 mph82%30.15 "Hg10 mi
1:50 AM52 °FClear.3 mph72%30.15 "Hg10 mi
1:20 AM52 °FClear.3 mph77%30.15 "Hg10 mi
12:50 AM52 °FClear.3 mph77%30.15 "Hg10 mi
12:20 AM54 °FClear.3 mph72%30.15 "Hg10 mi
11:50 PM
Thu, May 5
54 °FPassing clouds.5 mph72%30.15 "HgN/A
11:20 PM55 °FClear.5 mph67%30.15 "Hg10 mi
10:50 PM55 °FClear.3 mph67%30.15 "Hg10 mi
10:20 PM55 °FClear.3 mph67%30.12 "Hg10 mi
9:50 PM59 °FClear.5 mph59%30.12 "Hg10 mi
9:20 PM61 °FSunny.2 mph55%30.12 "Hg10 mi
8:50 PM63 °FSunny.1 mph52%30.12 "Hg10 mi
8:20 PM64 °FSunny.5 mph49%30.12 "Hg10 mi
7:50 PM66 °FSunny.5 mph46%30.12 "Hg10 mi
7:20 PM68 °FPassing clouds.6 mph40%30.12 "HgN/A
6:50 PM68 °FPassing clouds.7 mph40%30.12 "HgN/A
6:20 PM70 °FPassing clouds.8 mph38%30.12 "HgN/A
5:50 PM68 °FScattered clouds.5 mph40%30.12 "HgN/A
5:20 PM70 °FScattered clouds.8 mph40%30.12 "HgN/A
4:50 PM68 °FScattered clouds.6 mph40%30.15 "HgN/A
4:20 PM68 °FScattered clouds.6 mph40%30.15 "HgN/A
3:50 PM70 °FScattered clouds.8 mph35%30.15 "HgN/A
3:20 PM70 °FScattered clouds.7 mph35%30.15 "HgN/A
2:50 PM66 °FScattered clouds.7 mph40%30.18 "HgN/A
2:20 PM68 °FScattered clouds.6 mph38%30.18 "HgN/A
1:50 PM66 °FPartly sunny.7 mph40%30.18 "HgN/A
1:20 PM68 °FBroken clouds.7 mph35%30.18 "HgN/A
12:50 PM68 °FScattered clouds.10 mph35%30.18 "HgN/A
12:20 PM68 °FScattered clouds.9 mph35%30.18 "HgN/A
11:50 AM66 °FPartly sunny.7 mph37%30.18 "HgN/A
11:20 AM66 °FScattered clouds.8 mph37%30.18 "HgN/A
10:50 AM66 °FPassing clouds.7 mph40%30.18 "HgN/A
10:20 AM64 °FPassing clouds.6 mph40%30.18 "HgN/A
9:50 AM66 °FPassing clouds.2 mph35%30.15 "HgN/A
9:20 AM63 °FScattered clouds.3 mph39%30.18 "HgN/A
8:50 AM61 °FScattered clouds.3 mph42%30.15 "HgN/A
8:20 AM59 °FScattered clouds.3 mph48%30.15 "HgN/A
7:50 AM59 °FPartly sunny.5 mph45%30.15 "HgN/A
7:20 AM57 °FPartly sunny.5 mph51%30.15 "HgN/A
6:50 AM55 °FPassing clouds.8 mph55%30.15 "HgN/A
6:20 AM54 °FPassing clouds.9 mph63%30.15 "HgN/A
Weather by CustomWeather, © 2016

See weather overviewHow to use our weather pages